DW6471 Weather Reports


Display with metric or nautical units.
time (UTC)temp
F
wind
direction
speed
MPH
gust
MPH
rain 1hr
in
rain 24hr
in
rain mn
in
humidity
%
barometer
mb
20260904195156 85 227 2.0 7.0 0.00 0.16 0.16 83 1013.5
20260904194651 85 243 2.0 7.0 0.00 0.16 0.16 82 1013.6
20260904194423 87 331 2.0 6.0 0.00 0.16 0.16 80 1013.5
20260904193651 87 188 2.0 5.0 0.00 0.16 0.16 80 1013.5
20260904193152 87 200 2.0 5.0 0.00 0.16 0.16 79 1013.5
20260904192651 87 184 2.0 8.0 0.00 0.16 0.16 79 1013.6
20260904192151 88 304 2.0 8.0 0.00 0.16 0.16 78 1013.8
20260904191651 88 248 2.0 6.0 0.00 0.16 0.16 79 1013.8
20260904191421 88 252 2.0 8.0 0.00 0.16 0.16 76 1013.7
20260904191254 89 94 2.0 8.0 0.00 0.16 0.16 82 1013.8
20260904190149 88 210 1.0 8.0 0.00 0.16 0.16 79 1013.9
20260904185649 88 318 1.0 5.0 0.00 0.16 0.16 79 1013.8
20260904185421 87 297 1.0 5.0 0.01 0.16 0.16 80 1013.9
20260904184920 88 237 1.0 4.0 0.02 0.16 0.16 82 1014.0
20260904184148 86 181 2.0 5.0 0.04 0.16 0.16 82 1014.0
20260904183647 86 286 1.0 5.0 0.04 0.16 0.16 84 1014.0
20260904183418 86 257 1.0 3.0 0.05 0.16 0.16 86 1014.1
20260904182647 85 203 1.0 2.0 0.05 0.16 0.16 89 1014.1
20260904182418 84 233 0.0 2.0 0.05 0.16 0.16 87 1014.1
20260904181919 84 255 0.0 2.0 0.05 0.16 0.16 89 1014.4
20260904181147 84 215 0.0 3.0 0.05 0.16 0.16 89 1014.6
20260904180918 83 213 0.0 3.0 0.05 0.16 0.16 88 1014.6
20260904180147 83 208 1.0 3.0 0.05 0.16 0.16 87 1014.7
20260904175648 84 199 0.0 3.0 0.05 0.16 0.16 85 1014.6
20260904175417 85 211 0.0 2.0 0.04 0.15 0.15 84 1014.7
20260904174918 85 211 0.0 3.0 0.03 0.14 0.14 82 1014.8
20260904174147 86 211 1.0 6.0 0.01 0.12 0.13 80 1014.8
20260904173647 86 94 2.0 6.0 0.01 0.12 0.12 78 1014.8
20260904173147 87 60 2.0 5.0 0.00 0.11 0.11 76 1014.8
20260904172647 87 56 2.0 5.0 0.00 0.11 0.11 75 1014.8
20260904172417 88 117 2.0 6.0 0.00 0.11 0.11 73 1014.8
20260904171647 88 86 3.0 6.0 0.00 0.11 0.11 73 1014.8
20260904171147 89 71 3.0 7.0 0.00 0.11 0.11 71 1014.7
20260904170645 90 68 2.0 7.0 0.00 0.11 0.11 73 1014.7
20260904170145 90 257 3.0 7.0 0.00 0.11 0.11 72 1014.7
20260904165645 89 55 3.0 6.0 0.00 0.11 0.11 73 1014.9
20260904165146 89 113 2.0 6.0 0.00 0.11 0.11 71 1015.1
20260904164645 89 96 3.0 6.0 0.00 0.11 0.11 72 1015.1
20260904164146 89 70 2.0 6.0 0.00 0.11 0.11 72 1015.3
20260904163645 88 88 2.0 5.0 0.00 0.11 0.11 75 1015.3
20260904163150 87 125 2.0 5.0 0.00 0.11 0.11 75 1015.5
20260904162646 87 106 2.0 7.0 0.00 0.11 0.11 76 1015.5
20260904162145 87 62 2.0 6.0 0.00 0.11 0.11 76 1015.5
20260904161643 87 63 3.0 7.0 0.00 0.11 0.11 75 1015.5
20260904161414 87 69 3.0 7.0 0.00 0.11 0.11 75 1015.6
20260904160644 87 113 2.0 5.0 0.00 0.11 0.11 75 1015.6
20260904160143 86 116 2.0 5.0 0.00 0.11 0.11 77 1015.6
20260904155647 86 101 2.0 7.0 0.00 0.11 0.11 77 1015.6
20260904155643 86 98 2.0 7.0 0.00 0.11 0.11 78 1015.6
20260904154643 86 94 2.0 6.0 0.00 0.11 0.11 78 1015.7
20260904154142 86 49 2.0 5.0 0.00 0.11 0.11 79 1015.7
20260904153644 86 82 2.0 5.0 0.00 0.11 0.11 80 1015.7
20260904153413 86 76 2.0 5.0 0.00 0.11 0.11 79 1015.8
20260904152641 85 351 2.0 4.0 0.00 0.11 0.11 81 1015.7
20260904152141 85 44 2.0 5.0 0.00 0.11 0.11 84 1015.7
20260904151641 84 51 3.0 6.0 0.00 0.11 0.11 83 1015.6
20260904151141 84 60 2.0 6.0 0.00 0.11 0.11 84 1015.5
20260904150641 83 0 2.0 5.0 0.00 0.11 0.11 86 1015.5
20260904150413 83 91 1.0 4.0 0.00 0.11 0.11 87 1015.5
20260904145641 83 80 2.0 3.0 0.00 0.11 0.11 87 1015.4
20260904145141 83 7 2.0 4.0 0.00 0.11 0.11 87 1015.4
20260904144641 82 75 2.0 4.0 0.00 0.11 0.11 88 1015.5
20260904144140 82 346 1.0 3.0 0.00 0.11 0.11 89 1015.4
20260904143639 82 71 2.0 3.0 0.00 0.11 0.11 89 1015.4
20260904143139 82 97 2.0 4.0 0.00 0.11 0.11 88 1015.4
20260904142639 82 51 1.0 4.0 0.00 0.11 0.11 88 1015.3
20260904142139 82 73 1.0 2.0 0.00 0.11 0.11 89 1015.4
20260904141639 82 100 1.0 2.0 0.00 0.11 0.11 89 1015.5
20260904141138 82 56 1.0 2.0 0.00 0.11 0.11 89 1015.4
20260904140909 81 86 0.0 2.0 0.00 0.11 0.11 90 1015.4
20260904140139 81 99 0.0 1.0 0.00 0.11 0.11 90 1015.3
20260904135639 81 99 0.0 0.0 0.00 0.11 0.11 91 1015.3
20260904135139 80 99 0.0 1.0 0.00 0.11 0.11 91 1015.3
20260904134637 80 99 0.0 2.0 0.00 0.11 0.11 91 1015.3
20260904134137 80 99 0.0 2.0 0.00 0.11 0.11 91 1015.2
20260904133908 80 99 0.0 1.0 0.00 0.11 0.11 92 1015.2
20260904133137 80 99 0.0 1.0 0.00 0.11 0.11 93 1015.2
20260904132907 79 99 0.0 1.0 0.00 0.11 0.11 94 1015.2
20260904132136 79 99 0.0 1.0 0.00 0.11 0.11 94 1015.1
20260904131637 79 105 0.0 1.0 0.00 0.11 0.11 95 1015.1
20260904131138 78 105 0.0 1.0 0.00 0.11 0.11 95 1015.0
20260904130637 78 105 0.0 2.0 0.00 0.11 0.11 95 1014.8
20260904130137 78 105 0.0 2.0 0.00 0.11 0.11 95 1014.8
20260904125634 78 100 0.0 1.0 0.00 0.11 0.11 95 1014.7
20260904125135 78 100 0.0 1.0 0.00 0.11 0.11 95 1014.6
20260904124635 77 100 0.0 1.0 0.00 0.11 0.11 95 1014.6
20260904124135 77 100 0.0 1.0 0.00 0.11 0.11 95 1014.6
20260904123635 77 100 0.0 1.0 0.00 0.11 0.11 95 1014.5
20260904123135 77 100 0.0 1.0 0.00 0.11 0.11 95 1014.4
20260904122634 77 100 0.0 1.0 0.00 0.11 0.11 95 1014.4
20260904122135 77 100 0.0 0.0 0.00 0.11 0.11 95 1014.4
20260904121633 77 100 0.0 0.0 0.00 0.11 0.11 95 1014.3
20260904121133 76 100 0.0 0.0 0.00 0.11 0.11 95 1014.4
20260904120633 76 100 0.0 0.0 0.00 0.11 0.11 95 1014.3
20260904120133 76 100 0.0 0.0 0.00 0.11 0.11 95 1014.4
20260904115909 76 100 0.0 0.0 0.00 0.11 0.11 95 1014.4
20260904115633 76 100 0.0 0.0 0.00 0.11 0.11 95 1014.4
20260904114633 76 100 0.0 0.0 0.00 0.11 0.11 95 1014.4
20260904114133 76 100 0.0 0.0 0.00 0.11 0.11 95 1014.3
20260904113633 76 100 0.0 0.0 0.00 0.11 0.11 95 1014.2
20260904113132 76 100 0.0 0.0 0.00 0.11 0.11 95 1014.2
20260904112901 76 100 0.0 0.0 0.00 0.11 0.11 95 1014.3
20260904112130 76 100 0.0 0.0 0.00 0.11 0.11 95 1014.2
20260904111902 76 100 0.0 0.0 0.00 0.11 0.11 95 1014.3
20260904111131 76 100 0.0 0.0 0.00 0.11 0.11 95 1014.3
20260904110630 76 100 0.0 0.0 0.00 0.11 0.11 95 1014.3
20260904110129 76 100 0.0 0.0 0.00 0.11 0.11 95 1014.3
20260904105629 76 100 0.0 0.0 0.00 0.11 0.11 95 1014.3
20260904105129 76 100 0.0 0.0 0.00 0.11 0.11 95 1014.1
20260904104629 76 100 0.0 0.0 0.00 0.11 0.11 95 1014.1
20260904104129 76 100 0.0 0.0 0.00 0.11 0.11 95 1014.1
20260904103858 76 100 0.0 0.0 0.00 0.11 0.11 95 1014.0
20260904103128 76 100 0.0 0.0 0.00 0.11 0.11 95 1013.9
20260904102627 76 100 0.0 0.0 0.00 0.11 0.11 95 1013.9
20260904102127 76 100 0.0 0.0 0.00 0.11 0.11 95 1013.9
20260904101627 76 100 0.0 0.0 0.00 0.11 0.11 95 1013.8
20260904101357 76 100 0.0 0.0 0.00 0.11 0.11 95 1013.7
20260904100627 76 100 0.0 0.0 0.00 0.11 0.11 95 1013.7
20260904100127 76 100 0.0 0.0 0.00 0.11 0.11 95 1013.7
20260904095627 76 100 0.0 1.0 0.00 0.11 0.11 95 1013.7
20260904095125 76 100 0.0 1.0 0.00 0.11 0.11 95 1013.7
20260904094622 76 100 0.0 1.0 0.00 0.11 0.11 95 1013.6
20260904094353 77 100 0.0 1.0 0.00 0.11 0.11 95 1013.7
20260904093623 77 100 0.0 1.0 0.00 0.11 0.11 95 1013.5
20260904093123 77 100 0.0 1.0 0.00 0.11 0.11 95 1013.6
20260904092623 76 100 0.0 1.0 0.00 0.11 0.11 95 1013.5
20260904092123 77 100 0.0 0.0 0.00 0.11 0.11 95 1013.5
20260904091623 77 100 0.0 0.0 0.00 0.11 0.11 95 1013.6
20260904091355 77 100 0.0 0.0 0.00 0.11 0.11 95 1013.6
20260904090623 77 100 0.0 1.0 0.00 0.11 0.11 95 1013.6
20260904090123 77 100 0.0 1.0 0.00 0.11 0.11 95 1013.6
20260904085621 77 100 0.0 1.0 0.00 0.11 0.11 95 1013.6
20260904085121 77 100 0.0 1.0 0.00 0.11 0.11 95 1013.5
20260904084621 77 100 0.0 0.0 0.00 0.11 0.11 95 1013.5
20260904084121 77 100 0.0 0.0 0.00 0.11 0.11 95 1013.5
20260904083621 77 100 0.0 0.0 0.00 0.11 0.11 95 1013.5
20260904083121 77 100 0.0 0.0 0.00 0.11 0.11 95 1013.5
20260904082621 77 100 0.0 1.0 0.00 0.11 0.11 95 1013.4
20260904082351 77 100 0.0 1.0 0.00 0.11 0.11 95 1013.5
20260904081852 77 100 0.0 1.0 0.00 0.11 0.11 95 1013.5
20260904081120 77 100 0.0 1.0 0.00 0.11 0.11 95 1013.5
20260904080619 77 100 0.0 1.0 0.00 0.11 0.11 95 1013.5
20260904080119 78 100 0.0 1.0 0.00 0.11 0.11 95 1013.6
20260904075619 77 100 0.0 0.0 0.00 0.11 0.11 95 1013.7
20260904075119 77 100 0.0 0.0 0.00 0.11 0.11 95 1013.7
20260904074618 77 100 0.0 0.0 0.00 0.11 0.11 95 1013.8
20260904074117 77 100 0.0 1.0 0.00 0.11 0.11 95 1013.7
20260904073849 77 100 0.0 1.0 0.00 0.11 0.11 95 1013.8
20260904073117 77 100 0.0 0.0 0.00 0.11 0.11 94 1013.8
20260904072848 77 100 0.0 0.0 0.00 0.11 0.11 94 1013.7
20260904072117 77 100 0.0 0.0 0.00 0.11 0.11 94 1013.8
20260904071615 77 100 0.0 0.0 0.00 0.11 0.11 94 1013.7
20260904071115 77 100 0.0 0.0 0.00 0.11 0.11 94 1013.7
20260904070614 77 100 0.0 0.0 0.00 0.11 0.11 94 1013.8
20260904070345 78 100 0.0 0.0 0.00 0.11 0.11 94 1013.7
20260904065614 78 100 0.0 0.0 0.01 0.11 0.11 94 1013.8
20260904065115 78 100 0.0 0.0 0.03 0.11 0.11 94 1013.8
20260904064615 78 100 0.0 0.0 0.04 0.11 0.11 94 1013.9
20260904064119 78 100 0.0 0.0 0.07 0.11 0.11 94 1014.0
20260904064115 78 100 0.0 0.0 0.05 0.11 0.11 94 1013.9
20260904063113 78 100 0.0 0.0 0.08 0.11 0.11 93 1013.9
20260904062611 78 100 0.0 0.0 0.09 0.11 0.11 93 1013.9
20260904062110 78 100 0.0 0.0 0.09 0.11 0.11 93 1013.9
20260904061610 78 100 0.0 0.0 0.10 0.11 0.11 93 1013.9
20260904061111 78 100 0.0 1.0 0.10 0.11 0.11 93 1013.8
20260904060842 78 100 0.0 1.0 0.11 0.11 0.11 93 1014.0
20260904060111 79 100 0.0 1.0 0.11 0.11 0.11 92 1014.1
20260904055611 79 100 0.0 1.0 0.10 0.10 0.10 92 1014.3
20260904055111 79 100 0.0 1.0 0.08 0.08 0.09 92 1014.4
20260904054612 79 100 1.0 2.0 0.07 0.07 0.07 92 1014.4
20260904054111 79 100 1.0 2.0 0.06 0.06 0.06 91 1014.5
20260904053610 79 78 0.0 3.0 0.04 0.04 0.05 91 1014.5
20260904053111 79 91 1.0 3.0 0.03 0.03 0.04 91 1014.6
20260904052608 80 101 1.0 2.0 0.02 0.02 0.02 90 1014.7
20260904052110 80 82 1.0 2.0 0.02 0.02 0.02 90 1014.7
20260904051609 80 91 0.0 2.0 0.01 0.01 0.01 89 1014.8
20260904051108 80 113 0.0 2.0 0.01 0.01 0.01 89 1014.9
20260904050609 80 113 1.0 2.0 0.00 0.00 0.00 89 1014.9
20260904050109 80 105 0.0 2.0 0.00 0.00 0.00 90 1014.8
20260904045609 80 105 0.0 2.0 0.00 0.00 0.00 90 1014.6
20260904045110 80 109 0.0 2.0 0.00 0.00 0.00 91 1014.6
20260904044609 79 109 0.0 2.0 0.00 0.00 0.00 92 1014.5
20260904044109 79 109 1.0 2.0 0.00 0.00 0.00 91 1014.4
20260904043608 79 109 0.0 1.0 0.00 0.00 0.00 92 1014.5
20260904043337 79 109 0.0 0.0 0.00 0.00 0.00 91 1014.4
20260904042837 79 109 0.0 0.0 0.00 0.00 0.00 91 1014.3
20260904042339 79 109 0.0 1.0 0.00 0.00 0.00 91 1014.4
20260904041607 79 109 0.0 1.0 0.00 0.00 0.00 91 1014.3
20260904041107 79 109 0.0 0.0 0.00 0.00 0.00 91 1014.3
20260904040607 78 109 0.0 0.0 0.00 0.00 0.00 91 1014.2
20260904040107 79 109 0.0 0.0 0.00 0.00 0.00 90 1014.2
20260904035607 79 109 0.0 0.0 0.00 0.00 0.00 91 1014.3
20260904035107 79 109 0.0 0.0 0.00 0.00 0.00 91 1014.3
20260904034607 79 109 0.0 0.0 0.00 0.00 0.00 91 1014.3
20260904034105 79 109 0.0 0.0 0.00 0.00 0.00 90 1014.4
20260904033605 79 109 0.0 0.0 0.00 0.00 0.00 90 1014.3
20260904033105 79 109 0.0 0.0 0.00 0.00 0.00 90 1014.4
20260904032835 79 109 0.0 0.0 0.00 0.00 0.00 90 1014.5
20260904032336 79 109 0.0 0.0 0.00 0.00 0.00 89 1014.6
20260904031605 79 109 0.0 0.0 0.00 0.00 0.00 89 1014.6
20260904031105 80 109 0.0 0.0 0.00 0.00 0.00 88 1014.7
20260904030605 80 109 0.0 0.0 0.00 0.00 0.00 88 1014.7
20260904030335 80 109 0.0 0.0 0.00 0.00 0.00 88 1014.6
20260904025605 80 109 0.0 0.0 0.00 0.00 0.00 87 1014.7
20260904025103 80 109 0.0 0.0 0.00 0.00 0.00 87 1014.8
20260904024834 81 109 0.0 0.0 0.00 0.00 0.00 86 1014.8
20260904024103 81 109 0.0 1.0 0.00 0.00 0.00 86 1014.8
20260904023604 81 109 0.0 1.0 0.00 0.00 0.00 85 1014.7
20260904023101 81 109 0.0 1.0 0.00 0.00 0.00 84 1014.8
20260904022601 81 109 0.0 1.0 0.00 0.00 0.00 85 1014.9
20260904022332 81 205 0.0 0.0 0.00 0.00 0.00 85 1014.8
20260904021601 82 205 0.0 0.0 0.00 0.00 0.00 85 1014.7
20260904021101 82 205 0.0 0.0 0.00 0.00 0.00 84 1014.7
20260904020600 82 205 0.0 0.0 0.00 0.00 0.00 84 1014.8
20260904020059 82 205 0.0 0.0 0.00 0.00 0.00 83 1014.7
20260904015559 82 205 0.0 0.0 0.00 0.00 0.00 83 1014.7
20260904015059 82 205 0.0 1.0 0.00 0.00 0.00 82 1014.7
20260904014559 83 205 0.0 1.0 0.00 0.00 0.00 82 1014.6
20260904014059 83 205 0.0 1.0 0.00 0.00 0.00 82 1014.5
20260904013829 83 205 0.0 1.0 0.00 0.00 0.00 82 1014.6
20260904013703 83 205 0.0 0.0 0.00 0.00 0.00 82 1014.5
20260904012558 83 205 0.0 0.0 0.00 0.00 0.00 81 1014.5
20260904012330 83 205 0.0 1.0 0.00 0.00 0.00 80 1014.5
20260904011559 83 205 0.0 1.0 0.00 0.00 0.00 79 1014.4
20260904011057 83 112 0.0 1.0 0.00 0.00 0.00 80 1014.4
20260904010557 83 167 0.0 0.0 0.00 0.00 0.00 80 1014.4
20260904010057 84 167 0.0 0.0 0.00 0.00 0.00 80 1014.3
20260904005557 84 167 0.0 0.0 0.00 0.00 0.00 81 1014.2
20260904005057 84 167 0.0 2.0 0.00 0.00 0.00 80 1014.1
20260904004557 84 167 0.0 2.0 0.00 0.00 0.00 80 1014.2
20260904004057 85 223 0.0 1.0 0.00 0.00 0.00 81 1014.1
20260904003557 85 223 0.0 1.0 0.00 0.00 0.00 82 1014.1
20260904003057 85 223 0.0 1.0 0.00 0.00 0.00 81 1014.0
20260904002557 85 223 0.0 0.0 0.00 0.00 0.00 81 1014.0
20260904002055 85 223 0.0 0.0 0.00 0.00 0.00 80 1014.0
20260904001556 85 223 0.0 1.0 0.00 0.00 0.00 80 1013.9
20260904001055 86 223 0.0 2.0 0.00 0.00 0.00 80 1013.8
20260904000555 86 223 0.0 2.0 0.00 0.00 0.00 79 1013.7
20260904000054 87 223 0.0 1.0 0.00 0.00 0.00 79 1013.7
20260903235555 87 223 0.0 1.0 0.00 0.00 0.00 77 1013.7
20260903235055 87 131 0.0 2.0 0.00 0.00 0.00 76 1013.7
20260903234555 87 124 0.0 2.0 0.00 0.00 0.00 76 1013.6
20260903234055 88 228 0.0 2.0 0.00 0.00 0.00 75 1013.6
20260903233555 88 229 1.0 3.0 0.00 0.00 0.00 75 1013.5
20260903233053 88 233 1.0 4.0 0.00 0.00 0.00 74 1013.5
20260903232557 89 210 0.0 3.0 0.00 0.00 0.00 74 1013.5
20260903232553 89 221 0.0 4.0 0.00 0.00 0.00 73 1013.5
20260903231553 89 208 1.0 4.0 0.00 0.00 0.00 74 1013.4
20260903231053 89 209 1.0 4.0 0.00 0.00 0.00 73 1013.5
20260903230824 89 198 0.0 2.0 0.00 0.00 0.00 72 1013.4
20260903230053 90 195 1.0 3.0 0.00 0.00 0.00 71 1013.4
20260903225553 90 223 0.0 3.0 0.00 0.00 0.00 71 1013.4
20260903225051 90 210 1.0 2.0 0.00 0.00 0.00 72 1013.3
20260903224551 89 214 1.0 4.0 0.00 0.00 0.00 72 1013.3
20260903224322 89 92 0.0 4.0 0.00 0.00 0.00 71 1013.2
20260903223551 89 162 0.0 3.0 0.00 0.00 0.00 72 1013.3
20260903223051 89 229 0.0 4.0 0.00 0.00 0.00 71 1013.3
20260903222551 90 215 1.0 4.0 0.00 0.00 0.00 71 1013.3
20260903222051 89 216 1.0 4.0 0.00 0.00 0.00 70 1013.3
20260903221551 90 209 1.0 4.0 0.00 0.00 0.00 70 1013.3
20260903221051 90 112 1.0 3.0 0.00 0.00 0.00 70 1013.3
20260903220551 90 11 1.0 4.0 0.00 0.00 0.00 70 1013.3
20260903220049 90 211 1.0 4.0 0.00 0.00 0.00 71 1013.3
20260903215549 90 177 0.0 3.0 0.00 0.00 0.00 71 1013.3
20260903215049 90 136 1.0 4.0 0.00 0.00 0.00 70 1013.3
20260903214549 90 166 1.0 4.0 0.00 0.00 0.00 70 1013.4
20260903214049 90 220 1.0 3.0 0.00 0.00 0.00 70 1013.4
20260903213549 90 217 1.0 3.0 0.00 0.00 0.00 70 1013.3
20260903213048 90 236 1.0 5.0 0.00 0.00 0.00 70 1013.4
20260903212549 90 77 2.0 5.0 0.00 0.00 0.00 68 1013.4
20260903212049 90 186 1.0 4.0 0.00 0.00 0.00 67 1013.5
20260903211549 91 105 1.0 4.0 0.00 0.00 0.00 66 1013.6
20260903211318 91 99 1.0 4.0 0.00 0.00 0.00 67 1013.7
20260903210547 91 210 1.0 4.0 0.00 0.00 0.00 65 1013.7
20260903210047 91 203 1.0 5.0 0.00 0.00 0.00 63 1013.8
20260903205548 91 123 1.0 5.0 0.00 0.00 0.00 61 1013.8
20260903205047 91 217 1.0 6.0 0.00 0.00 0.00 60 1013.8
20260903204546 91 208 2.0 9.0 0.00 0.00 0.00 60 1013.9
20260903204047 91 184 2.0 9.0 0.00 0.00 0.00 59 1013.9
20260903203547 92 79 1.0 6.0 0.00 0.00 0.00 58 1013.9
20260903203047 92 152 2.0 5.0 0.00 0.00 0.00 58 1013.9
20260903202547 92 207 2.0 5.0 0.00 0.00 0.00 59 1013.9
20260903202317 93 101 2.0 6.0 0.00 0.00 0.00 58 1013.9
20260903201545 92 149 2.0 6.0 0.00 0.00 0.00 59 1013.9
20260903201045 92 80 3.0 10.0 0.00 0.00 0.00 60 1014.0
20260903200545 92 191 4.0 10.0 0.00 0.00 0.00 59 1014.0
20260903200045 92 82 3.0 8.0 0.00 0.00 0.00 57 1014.0